432  
ASUS43 KGLD 290808  
RWRGLD  
 
GOODLAND FORECAST AREA HOURLY WEATHER ROUNDUP  
NATIONAL WEATHER SERVICE GOODLAND KS  
100 AM MST MON NOV 29 2021  
   
..OFFICIAL OBSERVATIONS
 
 
 
CITY SKY/WX TMP DP RH WIND PRES REMARKS
 
GOODLAND KS CLEAR 41 23 48 W10 30.07F  
HILL CITY KS CLEAR 43 28 55 W8 30.02F  
IMPERIAL NEB CLEAR 45 27 49 W13 30.04F  
MCCOOK NEB CLEAR 42 26 53 W13 30.01F  
AKRON CO CLEAR 42 22 44 W7 30.11F  
BURLINGTON CO CLEAR 43 21 41 W13 30.11F  
LIMON CO CLEAR 32 18 56 N6 30.17F  

 
   
..UNOFFICIAL OBSERVATIONS
 
 
 
CITY SKY/WX TMP DP RH WIND PRES REMARKS
 
COLBY KS CLEAR 35 23 61 W9 30.07S  
NORTON KS FAIR 36 27 69 W8 30.02F  
SHARON SPRINGS N/A 40 22 47 SW9 N/A  
YUMA CO FAIR 36 16 44 W10 30.09F  

 
 
 
CLICK HERE TO GO TO PREVIOUS BULLETINS.

The Nexlab KS Page
The Nexlab CO Page
The Nexlab NE Page Main Text Page